{"data":{"norad_id":63496,"epoch":"2026-09-20T09:12:49.501728Z","epoch_age_seconds":165687,"freshness":"FRESH","line1":"1 63496U 25071D   26263.38390627  .00002630  00000+0  96469-4 0  9998","line2":"2 63496  53.1597 314.5147 0001300  82.4208 277.6941 15.31703075 82539","mean_motion":15.31703075,"eccentricity":0.00013,"inclination_deg":53.1597,"raan_deg":314.5147,"arg_perigee_deg":82.4208,"mean_anomaly_deg":277.6941,"bstar":9.6469e-5,"rev_number":8253,"period_min":94.012999223103,"perigee_km":469.84047600824,"apogee_km":471.62118164374,"semimajor_km":6848.867828826,"source":"CELESTRAK","updated_at":"2026-09-21T09:00:35.013588Z"}}